Simultaneous Nadir Overpasses (SNOs) Predictions

Prediction of SNOs between METOP-B and TERRA Satellite Orbit:

Table of predicted SNOs for the next 14.0 days since TLE Epoch: 1/10/2025
Index Date (METOP-B) Time (METOP-B) Lat,Lon (METOP-B) SZA (METOP-B ) Date (TERRA) Time (TERRA) Lat,Lon (TERRA) SZA (TERRA ) Distance(km) Time Diff (sec)
1 01/12/2025 09:15:40 79.10, 50.96 100.71 01/12/2025 09:16:47 79.09, 50.86 100.71 2.20 67
2 01/12/2025 10:06:15 -79.34,-140.04 79.02 01/12/2025 10:06:02 -79.33,-140.05 79.03 0.43 13
3 01/14/2025 22:55:31 -79.09, 25.93 79.76 01/14/2025 22:56:39 -79.09, 25.82 79.76 2.43 68
4 01/14/2025 23:46:05 79.32,-165.15 100.50 01/14/2025 23:45:52 79.32,-165.12 100.50 0.80 13
5 01/17/2025 12:35:24 78.95, -0.01 99.58 01/17/2025 12:36:31 78.96, 0.07 99.60 1.78 67
6 01/17/2025 13:25:55 -79.34, 170.03 79.98 01/17/2025 13:25:43 -79.33, 169.95 79.99 1.83 12
7 01/20/2025 02:15:16 -78.90, -25.34 81.02 01/20/2025 02:16:23 -78.91, -25.20 81.01 3.13 67
8 01/20/2025 03:05:44 79.34, 145.01 99.48 01/20/2025 03:05:31 79.33, 144.96 99.47 0.95 13
9 01/22/2025 15:55:03 78.95, -49.96 98.46 01/22/2025 15:56:09 78.96, -49.92 98.47 0.85 66



Historial Predications of SNOs between METOP-B and TERRA
